#timestamp,LO_Frequency,Hit,StdDev 
1712106015.7,286047002.7,N
1712106035.6,286047001.4,N
1712106055.4,286047006.0,N
1712106075.2,286047004.4,N
1712106095.1,286046998.1,N
1712106096.0,286046998.1,N
1712106115.8,286047000.5,N
1712106135.7,286047002.5,N
1712106155.5,286047003.5,N
1712106175.3,286047003.9,N
1712106195.2,286046998.7,N
1712106215.0,286046997.2,N
1712106215.9,286046997.2,N
1712106235.7,286046998.4,N
1712106255.6,286046996.0,N
1712106275.4,286046997.6,N
1712106295.3,286046995.0,N
1712106315.1,286046994.4,N
1712106316.0,286046994.4,N
1712106335.8,286046990.9,N
1712106355.7,286046986.3,Y
1712106375.5,286046993.1,P
1712106395.3,286046988.6,P
1712106415.2,286046993.4,N
1712106435.0,286046993.7,N
1712106435.9,286046993.7,N
1712106455.8,286046997.4,N
1712106475.6,286046996.1,N
1712106495.4,286046996.8,N
1712106515.3,286046998.2,N
1712106535.1,286047002.2,N
1712106555.8,286047001.9,N
1712106575.7,286047000.4,N
1712106595.5,286046999.1,N
1712106615.4,286046997.0,N
1712106635.2,286046993.8,N
1712106655.0,286046994.4,N
1712106655.9,286046994.4,N
1712106675.8,286046994.6,N
1712106695.6,286046995.0,N
1712106715.4,286046999.2,N
1712106735.3,286046996.8,N
1712106755.1,286046999.4,N
1712106775.9,286046998.9,N
1712106795.7,286047000.1,N
1712106815.5,286047002.1,N
1712106835.4,286046998.3,N
1712106855.2,286047000.7,N
1712106875.0,286047002.4,N
1712106875.9,286047002.4,N
1712106895.8,286047001.1,N
1712106915.6,286047000.5,N
1712106935.5,286046999.1,N
1712106955.3,286046998.2,N
1712106975.1,286047003.5,N
1712106995.9,286047002.7,N
1712107015.7,286047000.1,N
1712107035.5,286047001.2,N
1712107055.4,286047002.5,N
1712107075.2,286047003.5,N
1712107095.1,286047001.6,N
1712107096.0,286047001.6,N
1712107115.8,286047000.0,N
1712107135.6,286046997.1,N
1712107155.5,286047004.1,N
1712107175.3,286047001.3,N
1712107195.1,286046998.8,N
1712107215.9,286047001.3,N
1712107235.7,286047001.9,N
1712107255.6,286047001.6,N
1712107275.4,286047000.2,N
1712107295.2,286047001.2,N
1712107315.1,286046995.2,N
1712107316.0,286046995.2,N
1712107335.8,286046995.9,N
1712107355.7,286046992.0,Y
1712107375.5,286046993.1,P
1712107395.3,286046995.8,N
1712107415.2,286046994.5,N
1712107435.9,286046996.2,N
1712107455.7,286046993.7,N
1712107475.6,286046995.5,N
1712107495.4,286046995.0,N
1712107515.2,286047002.1,N
1712107535.1,286047002.6,N
1712107536.0,286047002.6,N
1712107555.8,286047000.7,N
1712107575.7,286047000.1,N
1712107595.5,286047000.5,N
1712107615.3,286047002.6,N
1712107635.2,286047001.8,N
1712107655.0,286047000.5,N
1712107655.9,286047000.5,N
1712107675.7,286046999.7,N
1712107695.6,286046999.8,N
1712107715.4,286046998.5,N
1712107735.3,286046996.7,N
1712107755.1,286047000.7,N
1712107756.0,286047000.7,N
1712107775.8,286046999.0,N
1712107795.7,286047002.2,N
1712107815.5,286047001.4,N
1712107835.3,286047002.2,N
1712107855.2,286047001.7,N
1712107875.0,286047001.6,N
1712107875.9,286047001.6,N
1712107895.8,286047000.4,N
1712107915.6,286047000.9,N
1712107935.4,286047000.1,N
1712107955.3,286047003.4,N
1712107975.1,286047005.4,N
1712107995.9,286047008.7,Y
1712108015.7,286047004.9,P
1712108035.5,286047005.7,N
1712108055.4,286047005.6,N
1712108075.2,286047000.1,N
1712108095.0,286047004.1,N
1712108095.9,286047004.1,N
1712108115.8,286047002.3,N
1712108135.6,286047001.1,N
1712108155.5,286046996.7,N
1712108175.3,286047000.6,N
1712108195.1,286047000.5,N
1712108215.9,286047001.1,N
1712108235.7,286047000.1,N
1712108255.5,286046998.7,N
1712108275.4,286047001.9,N
1712108295.2,286047003.0,N
1712108315.0,286047006.4,N
1712108316.0,286047006.4,N
1712108335.8,286047010.0,Y
1712108355.6,286047008.3,P
1712108375.5,286047008.4,N
1712108395.3,286047014.0,P
1712108415.1,286047010.5,N
1712108435.9,286047013.6,Y
1712108455.7,286047003.5,P
1712108475.6,286047002.7,N
1712108495.4,286046998.7,N
1712108515.2,286047003.8,N
1712108535.1,286047006.3,N
1712108536.0,286047006.3,N
1712108555.8,286047005.1,N
1712108575.6,286047001.8,N
1712108595.5,286047002.3,N
1712108615.3,286047000.4,N
1712108635.2,286047001.4,N
1712108655.9,286047004.1,N
1712108675.7,286047004.3,N
1712108695.6,286047000.2,N
1712108715.4,286046998.6,N
1712108735.2,286047001.2,N
1712108755.1,286046998.4,N
1712108756.0,286046998.4,N
1712108775.8,286046998.9,N
1712108795.7,286046999.4,N
1712108815.5,286046996.5,N
1712108835.3,286046999.6,N
1712108855.2,286047001.6,N
1712108875.0,286047012.0,Y
1712108875.9,286047012.0,P
1712108895.7,286047009.7,N
1712108915.6,286047003.0,N
1712108935.4,286047001.7,N
1712108955.3,286047000.4,N
1712108975.1,286046995.6,N
1712108995.8,286046995.4,N
1712109015.7,286046998.5,N
1712109035.5,286046998.6,N
1712109055.4,286046998.1,N
1712109075.2,286047003.9,N
1712109095.0,286047003.2,N
1712109095.9,286047003.2,N
1712109115.8,286047003.4,N
1712109135.6,286047001.0,N
1712109155.5,286047000.4,N
1712109175.3,286046999.8,N
1712109195.1,286047001.9,N
1712109215.9,286046999.5,N
1712109235.7,286047001.2,N
1712109255.5,286047002.8,N
1712109275.4,286047000.8,N
1712109295.2,286047001.2,N
1712109315.1,286047000.9,N
1712109316.0,286047000.9,N
1712109335.8,286047000.0,N
1712109355.6,286046999.3,N
1712109375.5,286046997.3,N
1712109395.3,286046999.4,N
1712109415.2,286046995.4,N
1712109435.9,286046997.0,N
1712109455.7,286046997.9,N
1712109475.6,286046998.4,N
1712109495.4,286046998.3,N
1712109515.2,286046995.5,N
1712109535.1,286046994.0,N
1712109536.0,286046994.0,N
1712109555.8,286047000.8,N
1712109575.7,286046995.7,N
1712109595.5,286046989.8,Y
